Clarksville, NY

8:39 PM EST on November 25, 2014 (GMT -0500)
SporeRdDelmar | Change Station
CLOSE
Current Station
Personal Weather Station
Location: Delmar, NY
Elevation: 535 ft
Nearby Weather Stations
Active Advisory: Winter Storm Warning Active Notice: Record Report

Elev 535 ft 42.61 °N, 73.92 °W | Updated 6 seconds ago

Partly Cloudy
Partly Cloudy
41.8 °F
Feels Like 40 °F
N
3.8
Wind Variable Wind from NNW
Gusts 7.6 mph

Today
High -- | Low -- °F
--% Chance of Precip.
Yesterday
High -- | Low -- °F
Precip. -- in
6:59 AM 4:26 PM
Waxing Crescent, 15% visible
Pressure 30.05 in
Visibility 10.0 miles
Clouds Mostly Cloudy 26000 ft
Windchill 40 °F
Dew Point 27 °F
Humidity 56%
Rainfall 0.00 in
Snow Depth Not available.
UV 0 out of 12
Pollen .10 out of 12
Air Quality Not available.
Flu Activity Not available.
METAR KALB 260051Z 23006KT 10SM BKN260 06/M04 A3005 RMK AO2 SLP176 T00611039

More Conditions Fewer Conditions

Pressure 30.05 in
Visibility 10.0 miles
Clouds Mostly Cloudy 26000 ft
Windchill 40 °F
Dew Point 27 °F
Humidity 56%
Rainfall 0.00 in
Snow Depth Not available.
UV 0 out of 12
Pollen .10 out of 12
Air Quality Not available.
Flu Activity Not available.
METAR KALB 260051Z 23006KT 10SM BKN260 06/M04 A3005 RMK AO2 SLP176 T00611039

More Conditions Fewer Conditions

10-Day Weather Forecast

Almanac

Astronomy

Nov. 25, 2014 Rise Set
Actual Time
Civil Twilight
Nautical Twilight
Astronomical Twilight
Moon
Length of Visible Light
Length of Day
Tomorrow will be .
, % of the Moon is Illuminated

Today's Extremes

State Highs State Lows

Community

WunderPhotos

Upload Photos

1,773,636 photos uploaded!

WunderBlogs® & News

Nearby

Air Quality

  Air Quality AQ Index Pollutant
Not available.

Snow Depth

Station Depth Elevation

Earthquake Activity

City Distance Mag. Time & Date
Minimum magnitude displayed is 2.5.

Coastal Water Temperatures

Place Temperature

Nearby Weather Stations